San Antonio Stinson, TX

1:49 AM CST on February 21, 2018 (GMT -0600)
Stinson Municipal

Weather History for KSSF - July, 2013

Change the Weather History Date:

Wednesday, July 24, 2013

  Actual Average Record
Temperature  
Mean Temperature 88 °F -  
Max Temperature 99 °F 94 °F 104 °F (2011)
Min Temperature 77 °F 72 °F 69 °F (1999)
Cooling Degree Days 22    
Growing Degree Days 38 (Base 50)    
Moisture  
Dew Point 72 °F    
Average Humidity 68    
Maximum Humidity 90    
Minimum Humidity 33    
Precipitation  
Precipitation 0.00 in - - ()
Sea Level Pressure  
Sea Level Pressure 29.90 in    
Wind  
Wind Speed 8 mph (SSE)    
Max Wind Speed 12 mph    
Max Gust Speed -    
Visibility 8 miles    
Events      
Averages and records for this station are not official NWS values.
T = Trace of Precipitation, MM = Missing Value Source: NWS Daily Summary

Daily Weather History Graph

Daily Weather History Graph

Search for Another Location

Airport or City:

Trip Planner

Search our weather history database for the weather conditions in past years. The results will help you decide how hot, cold, wet, or windy it might be!

Date:

Astronomy

Jul. 24, 2013 Rise Set
Actual Time 6:49 AM CDT 8:30 PM CDT
Civil Twilight 6:23 AM CDT 8:56 PM CDT
Nautical Twilight 5:51 AM CDT 9:28 PM CDT
Astronomical Twilight 5:18 AM CDT 10:01 PM CDT
Moon 9:55 PM CDT (7/24) 8:56 AM CDT (7/24)
Length of Visible Light 14h 33m
Length of Day
13h 41m
Waning Gibbous, 94% of the Moon is Illuminated
Jul 24
Waning Gibbous
Jul 29
Last Quarter
Aug 6
New
Aug 14
First Quarter
Aug 20
Full

Hourly Weather History & Observations

Time (CDT) Temp. Heat Index Dew Point Humidity Pressure Visibility Wind Dir Wind Speed Gust Speed Precip Events Conditions
12:53 AM 80.1 °F 85.1 °F 75.0 °F 85% 29.89 in 9.0 mi SE 10.4 mph - N/A   Clear
1:40 AM 78.8 °F - 73.4 °F 83% 29.93 in 8.0 mi SSE 5.8 mph - N/A   Mostly Cloudy
1:53 AM 79.0 °F - 73.9 °F 84% 29.89 in 8.0 mi SSE 9.2 mph - N/A   Overcast
2:16 AM 80.6 °F 85.4 °F 73.4 °F 79% 29.93 in 8.0 mi SSE 6.9 mph - N/A   Overcast
2:53 AM 79.0 °F - 73.9 °F 84% 29.88 in 8.0 mi SSE 9.2 mph - N/A   Overcast
3:48 AM 78.8 °F - 73.4 °F 83% 29.94 in 8.0 mi SSE 8.1 mph - N/A   Overcast
3:53 AM 78.1 °F - 73.9 °F 87% 29.90 in 8.0 mi SSE 10.4 mph - N/A   Overcast
4:04 AM 78.8 °F - 73.4 °F 83% 29.94 in 8.0 mi SSE 8.1 mph - N/A   Overcast
4:53 AM 78.1 °F - 73.9 °F 87% 29.91 in 8.0 mi SSE 5.8 mph - N/A   Overcast
5:53 AM 78.1 °F - 73.9 °F 87% 29.91 in 7.0 mi SE 8.1 mph - N/A   Overcast
6:53 AM 77.0 °F - 73.9 °F 90% 29.92 in 6.0 mi SE 4.6 mph - N/A   Overcast
7:29 AM 77.0 °F - 73.4 °F 89% 29.96 in 5.0 mi SE 4.6 mph - N/A   Overcast
7:53 AM 78.1 °F - 73.9 °F 87% 29.93 in 5.0 mi SE 4.6 mph - N/A   Overcast
8:08 AM 78.8 °F - 73.4 °F 83% 29.96 in 5.0 mi Calm Calm - N/A   Overcast
8:53 AM 80.1 °F 84.5 °F 73.9 °F 81% 29.93 in 6.0 mi SSE 9.2 mph - N/A   Haze
9:11 AM 80.6 °F 85.4 °F 73.4 °F 79% 29.97 in 6.0 mi South 10.4 mph - N/A   Haze
9:53 AM 84.0 °F 91.2 °F 73.9 °F 72% 29.93 in 7.0 mi South 10.4 mph - N/A   Mostly Cloudy
10:09 AM 84.2 °F 90.9 °F 73.4 °F 70% 29.96 in 8.0 mi South 10.4 mph - N/A   Scattered Clouds
10:53 AM 87.1 °F 93.6 °F 72.0 °F 61% 29.94 in 9.0 mi South 9.2 mph - N/A   Partly Cloudy
11:53 AM 89.1 °F 95.0 °F 71.1 °F 55% 29.95 in 10.0 mi Calm Calm - N/A   Scattered Clouds
12:53 PM 93.9 °F 100.8 °F 71.1 °F 47% 29.94 in 10.0 mi Variable 4.6 mph - N/A   Scattered Clouds
1:53 PM 93.9 °F 100.8 °F 71.1 °F 47% 29.90 in 10.0 mi ENE 8.1 mph - N/A   Clear
2:53 PM 97.0 °F 102.2 °F 68.0 °F 39% 29.89 in 10.0 mi Calm Calm - N/A   Partly Cloudy
3:53 PM 98.1 °F 103.0 °F 68.0 °F 37% 29.85 in 10.0 mi Variable 4.6 mph - N/A   Partly Cloudy
4:53 PM 98.1 °F 102.4 °F 66.9 °F 36% 29.82 in 10.0 mi SE 6.9 mph - N/A   Clear
5:53 PM 98.1 °F 100.7 °F 64.0 °F 33% 29.81 in 10.0 mi South 5.8 mph - N/A   Clear
6:53 PM 95.0 °F 97.4 °F 64.9 °F 37% 29.81 in 10.0 mi SSE 5.8 mph - N/A   Clear
7:53 PM 93.0 °F 96.4 °F 66.9 °F 42% 29.82 in 10.0 mi ESE 6.9 mph - N/A   Clear
8:53 PM 89.1 °F 92.1 °F 66.9 °F 48% 29.84 in 10.0 mi ESE 6.9 mph - N/A   Clear
9:53 PM 87.1 °F 92.0 °F 70.0 °F 57% 29.86 in 10.0 mi ESE 5.8 mph - N/A   Clear
10:53 PM 86.0 °F 91.5 °F 71.1 °F 61% 29.89 in 10.0 mi SE 11.5 mph - N/A   Clear
11:53 PM 82.9 °F 88.0 °F 72.0 °F 69% 29.91 in 10.0 mi SSE 9.2 mph - N/A   Clear